Theta_e
347 347 346 346 346 346 345 346 348 348 347 341 342 343 343 344 344 346 350 350 349 352 353 354 353 349 352 349 339 340 344 352 350
347 347 348 347 347 347 346 346 347 349 349 346 342 345 343 343 344 343 349 346 348 351 353 355 350 347 350 352 351 350 347 352 352
348 349 349 348 348 347 347 345 346 347 348 350 351 350 344 343 343 344 340 340 342 350 353 355 352 349 350 350 350 351 353 354 355
347 346 346 346 346 347 347 347 346 346 349 349 348 341 345 343 343 343 343 339 340 342 352 353 348 347 348 351 353 350 350 354 353
352 354 354 353 351 351 349 349 348 347 347 349 350 348 341 341 342 343 346 345 341 341 342 344 344 345 347 348 349 349 349 349 352
360 359 359 358 357 355 355 352 350 350 351 350 350 351 347 348 345 343 349 352 347 345 343 344 346 346 345 345 344 343 345 345 348
355 356 357 358 356 355 354 354 352 349 351 350 350 351 352 350 351 352 352 353 348 350 347 347 348 348 348 346 345 345 346 355 348
349 350 353 354 354 354 354 354 354 352 353 353 353 351 345 346 347 352 354 355 354 347 349 352 349 349 349 348 345 344 344 344 345
345 344 346 350 354 355 355 355 355 350 345 344 345 351 357 357 349 348 348 350 354 346 347 348 349 349 346 347 350 348 349 352 352
344 344 345 346 349 352 352 348 345 346 348 348 348 348 349 350 351 351 353 352 351 352 351 347 346 344 342 342 341 341 344 349 351
345 345 346 345 345 345 345 343 341 340 340 340 344 346 346 344 344 346 349 349 348 346 343 341 341 341 340 340 341 342 341 342 340
345 344 344 345 346 346 344 345 341 341 339 335 344 350 351 349 348 349 347 345 344 338 339 340 341 341 340 338 338 338 342 345 341
344 343 344 344 345 345 345 347 346 346 346 343 338 335 337 338 338 338 342 347 345 341 341 341 339 338 337 337 339 339 338 337 337
343 342 343 344 346 346 346 345 346 347 346 339 335 335 334 334 333 334 336 337 338 338 338 336 336 336 335 335 335 337 336 336 340
343 344 344 345 346 346 346 339 343 347 344 334 334 335 339 337 336 337 342 337 344 340 339 343 346 346 345 345 347 345 338 335 336
343 345 346 345 343 342 343 337 339 347 335 336 338 337 337 336 335 335 333 335 336 346 347 345 344 344 343 343 345 344 343 341 340
341 344 346 345 343 343 339 335 335 336 336 335 335 333 332 333 333 333 333 340 336 341 341 339 336 341 340 340 344 344 343 342 341
340 345 346 346 346 348 348 341 341 340 338 336 334 337 341 341 340 336 340 335 333 333 334 333 332 333 334 337 339 337 340 341 341
343 345 347 347 348 349 348 344 343 341 341 338 336 345 341 341 340 339 339 338 340 334 336 335 334 332 331 332 333 333 335 339 340
344 346 346 347 344 344 350 349 349 345 341 338 340 348 345 343 339 340 341 341 341 341 341 336 333 334 334 329 331 334 335 335 336
Wind_Speed
17 21 21 20 18 16 17 16 15 15 16 15 15 16 16 16 15 14 11 11 12 8 7 6 7 4 3 2 1 3 3 3 5
9 12 17 18 17 14 15 15 16 17 16 16 14 13 15 14 13 13 13 13 12 11 10 9 8 8 6 3 4 3 5 4 5
6 8 10 13 14 16 16 15 15 16 17 17 14 13 12 12 12 11 14 13 13 13 11 11 9 10 10 8 5 5 7 7 7
9 9 10 11 10 11 15 17 18 18 17 17 17 17 16 16 15 13 12 15 14 13 12 12 13 12 12 11 10 10 9 9 11
4 4 4 8 10 11 11 14 16 17 17 16 16 18 21 20 18 17 16 14 16 16 15 15 15 14 15 14 14 14 12 13 12
6 4 2 1 4 6 7 9 12 13 14 14 13 14 15 17 19 20 18 17 15 16 16 16 16 17 18 18 17 18 16 17 17
8 8 7 6 5 3 1 1 5 11 10 9 11 11 12 13 15 17 17 17 19 17 17 16 17 18 18 18 18 19 18 17 18
12 14 13 12 10 8 7 6 4 3 4 5 6 8 10 12 13 14 15 16 19 19 19 17 18 18 19 19 20 20 20 20 21
12 16 15 13 12 11 10 11 9 6 3 1 4 4 4 5 9 10 12 14 15 17 19 19 19 18 15 13 17 18 18 20 21
11 14 12 12 12 11 10 10 9 8 7 5 4 2 5 3 4 6 9 12 14 15 14 14 16 16 15 17 18 19 20 23 23
10 12 11 10 9 9 9 10 10 11 12 9 5 1 1 1 1 2 3 4 8 11 18 18 17 20 22 22 23 26 26 30 33
11 12 10 10 8 6 7 6 8 8 9 8 5 3 2 1 2 5 8 11 11 11 12 13 15 17 18 19 20 23 21 21 20
9 9 8 7 5 5 5 5 5 6 7 7 5 3 3 3 3 3 4 6 8 10 11 13 14 16 15 15 15 16 14 15 17
10 9 8 5 3 2 3 4 3 3 5 5 7 7 6 5 4 4 3 3 5 7 9 10 14 16 18 19 18 18 19 18 17
12 10 7 4 0 1 1 2 2 2 3 3 3 5 6 6 6 5 5 8 8 9 9 10 11 12 13 11 14 17 18 18 18
11 9 6 2 1 1 1 0 1 2 3 4 4 4 4 5 6 7 9 9 9 6 6 7 9 9 10 12 12 15 17 14 14
10 7 5 4 3 2 2 3 2 2 3 3 2 3 5 7 6 8 8 7 9 8 7 10 8 7 11 12 11 10 11 12 10
6 6 6 5 3 2 1 4 4 4 5 4 2 2 2 5 5 7 8 12 12 9 6 7 7 10 14 14 12 10 11 10 7
7 7 6 4 1 2 5 7 7 6 6 5 4 2 2 2 3 3 6 7 7 6 5 4 5 7 10 12 17 14 9 8 8
9 6 4 1 1 3 3 2 2 3 4 4 4 4 4 3 2 3 5 6 5 5 7 6 6 4 8 4 12 14 10 7 5
Wind_Direction
205 215 216 219 224 228 227 223 217 216 220 226 224 225 231 232 234 235 231 238 218 228 235 235 228 265 246 234 248 218 234 227 223
202 213 222 222 224 221 221 224 222 222 225 235 235 226 229 234 234 226 224 224 234 237 236 227 241 236 235 248 244 287 244 222 245
173 171 191 200 215 223 230 229 230 229 227 231 231 223 231 233 237 239 236 235 234 227 229 232 235 237 239 247 254 267 282 243 255
157 165 185 193 206 215 224 227 225 226 229 223 229 232 227 229 230 234 239 240 239 235 235 243 246 247 249 259 253 259 266 263 244
134 144 205 232 233 238 235 219 224 224 224 228 233 231 234 243 250 247 239 245 242 242 244 244 246 247 254 258 259 264 261 265 253
95 71 45 271 239 240 239 231 227 233 227 225 227 236 236 233 244 249 242 233 241 245 246 245 247 253 252 253 255 259 260 260 259
95 85 76 78 73 84 81 265 245 231 233 235 230 226 234 234 236 237 235 232 237 243 253 250 251 253 257 255 252 253 255 250 257
100 86 72 68 69 65 56 53 68 133 173 206 219 238 241 242 243 237 236 227 232 234 239 247 249 249 253 254 251 251 253 255 253
93 85 77 74 68 61 57 59 56 48 42 261 243 221 224 231 237 239 238 232 233 244 247 246 249 247 249 259 263 263 259 260 260
100 94 86 78 72 71 66 52 45 39 36 33 36 275 261 270 248 241 228 231 229 230 223 235 240 245 262 267 267 268 264 257 256
119 104 101 90 81 71 61 53 52 50 43 32 9 359 19 24 325 272 257 249 259 253 278 279 272 268 268 269 265 261 262 258 265
122 111 109 101 92 84 60 43 26 26 27 23 34 39 35 273 249 264 273 275 265 264 263 264 265 267 269 274 277 277 281 275 280
130 120 113 104 87 62 36 29 20 26 16 22 31 28 31 24 1 317 273 271 273 287 288 284 289 291 288 287 288 292 297 293 289
148 141 133 127 98 32 6 14 36 32 28 32 56 63 50 30 14 14 8 322 302 297 294 285 294 291 289 293 293 289 289 291 292
160 157 153 149 103 349 338 359 43 55 32 43 35 8 1 0 7 15 345 345 326 318 311 316 314 313 318 309 307 309 293 288 283
162 165 160 159 86 48 82 48 53 88 351 30 41 30 33 35 27 16 359 351 341 343 320 330 327 327 324 321 309 305 307 303 290
174 170 169 152 128 113 58 35 17 343 323 348 9 20 31 31 29 5 12 8 352 339 332 339 4 357 357 355 345 337 332 319 314
192 183 170 160 156 166 244 312 311 315 303 293 290 338 13 25 18 37 25 21 23 36 44 30 18 9 7 3 359 356 1 18 9
179 168 158 153 188 290 296 290 280 283 288 280 261 280 292 309 15 3 356 357 355 360 358 2 3 24 7 10 1 3 3 12 14
161 149 148 174 266 322 339 314 256 269 274 280 266 260 260 268 320 326 347 341 333 311 307 291 305 344 2 333 350 348 0 9 18